This is the latest recevied weather packets stored in our database for station/object EB1GOD-1. If no packets are shown the sender has not sent any weather packets the latest 10 day(s).
| Time | Temp. | Humidity | Pressure | Rain* | Wind** | Luminosity | Snow |
|---|---|---|---|---|---|---|---|
| 1777975414 | 13.89° C | 69% | 1153.4 hPa | - | - | - | - |
| 1777974514 | 13.33° C | 70% | 1153.4 hPa | - | - | - | - |
| 1777973615 | 12.78° C | 73% | 1153.5 hPa | - | - | - | - |
| 1777972714 | 11.67° C | 73% | 1153.5 hPa | - | - | - | - |
| 1777971814 | 11.67° C | 71% | 1153.6 hPa | - | - | - | - |
| 1777970914 | 11.67° C | 73% | 1153.6 hPa | - | - | - | - |
| 1777970014 | 11.11° C | 74% | 1153.4 hPa | - | - | - | - |
| 1777969114 | 11.11° C | 74% | 1153.4 hPa | - | - | - | - |
| 1777968221 | 11.11° C | 75% | 1153.4 hPa | - | - | - | - |
| 1777967314 | 11.11° C | 75% | 1153.3 hPa | - | - | - | - |
| 1777966414 | 11.11° C | 75% | 1153.4 hPa | - | - | - | - |
| 1777965514 | 11.11° C | 74% | 1153.3 hPa | - | - | - | - |
| 1777964613 | 11.11° C | 74% | 1153.2 hPa | - | - | - | - |
| 1777963713 | 11.11° C | 74% | 1153.1 hPa | - | - | - | - |
| 1777962813 | 10.56° C | 74% | 1153.2 hPa | - | - | - | - |
| 1777961913 | 10.56° C | 74% | 1153.1 hPa | - | - | - | - |
| 1777961013 | 10.56° C | 74% | 1153.1 hPa | - | - | - | - |
| 1777960113 | 10.56° C | 75% | 1152.9 hPa | - | - | - | - |
| 1777959213 | 10.56° C | 74% | 1152.9 hPa | - | - | - | - |
| 1777958313 | 10.56° C | 75% | 1152.8 hPa | - | - | - | - |
| 1777957413 | 10.56° C | 75% | 1152.8 hPa | - | - | - | - |
| 1777956513 | 10.56° C | 74% | 1152.8 hPa | - | - | - | - |
| 1777955613 | 10.56° C | 75% | 1152.8 hPa | - | - | - | - |
| 1777954712 | 10.56° C | 76% | 1152.8 hPa | - | - | - | - |
| 1777953812 | 10.56° C | 76% | 1152.9 hPa | - | - | - | - |
* Rain since midnight (hover to see other rain measurements)
** Current wind speed in m/s (hover to see current wind gust speed)